Home   Weather   Manaus   Past weeks

Flag for Brazil Past Weather in Manaus, Amazonas, Brazil — Yesterday and Last 2 Weeks

Now
79 °F

Clear.


Feels Like: 82 °F
Forecast: 75 / 92 °F
Wind: 3 mph from Southeast

Location: Manaus Aeroporto

Current Time: Sep 28, 2016 at 2:52:28 AM

Latest Report: Sep 28, 2016 at 2:00 AM


Visibility: 10 mi

Pressure: 29.86 "Hg

Humidity: 84%

Dew Point: 73 °F

Location of ManausLocation

Past Weather in Manaus — Graph

°F

Manaus Temperature Yesterday

Maximum temperature yesterday: 91 °F (at 1:00 PM)
Minimum temperature yesterday: 77 °F (at 3:00 AM)
Average temperature yesterday: 82 °F

High & Low Weather Summary for the Past Weeks

 TemperatureHumidityPressure
High95 °F (Sep 14, 3:00 PM)100% (Sep 16, 4:00 AM)30.04 "Hg (Sep 16, 4:00 AM)
Low70 °F (Sep 16, 4:00 AM)34% (Sep 14, 4:00 PM)29.74 "Hg (Sep 26, 4:00 PM)
Average82 °F73%29.88 "Hg
* Reported Sep 13 1:00 AM — Sep 28 1:00 AM, Manaus, Weather by CustomWeather, © 2016

Note: Actual official high and low records may vary slightly from our data, if they occured in-between our weather recording intervals... More about our weather records

Advertising

Manaus Weather History for the Previous 24 Hours

Scroll right to see more
 ConditionsComfort  
Time TempWeatherWind HumidityBarometerVisibility
1:00 AM
Wed, Sep 28
79 °FClear.3 mph84%29.86 "Hg10 mi
11:00 PM
Tue, Sep 27
81 °FClear.3 mph84%29.89 "Hg10 mi
10:00 PM81 °FClear.2 mph84%29.86 "Hg10 mi
9:00 PM81 °FClear.2 mph84%29.86 "Hg10 mi
8:00 PM81 °FClear.2 mph84%29.83 "Hg10 mi
7:00 PM81 °FClear.3 mph79%29.83 "Hg10 mi
6:00 PM84 °FPassing clouds.5 mph70%29.80 "HgN/A
5:00 PM86 °FPassing clouds.6 mph66%29.80 "HgN/A
4:00 PM88 °FScattered clouds.7 mph62%29.77 "HgN/A
3:00 PM88 °FScattered clouds.8 mph59%29.80 "HgN/A
2:00 PM91 °FPartly sunny.8 mph56%29.80 "HgN/A
1:00 PM91 °FScattered clouds.6 mph56%29.86 "HgN/A
12:00 PM90 °FScattered clouds.5 mph59%29.92 "HgN/A
11:00 AM86 °FScattered clouds.2 mph66%29.95 "HgN/A
10:00 AM82 °FScattered clouds.3 mph74%29.95 "HgN/A
9:00 AM81 °FScattered clouds.3 mph74%29.95 "HgN/A
8:00 AM79 °FScattered clouds.3 mph79%29.92 "HgN/A
7:00 AM79 °FScattered clouds.3 mph79%29.92 "HgN/A
6:00 AM77 °FScattered clouds.5 mph83%29.89 "HgN/A
5:00 AM77 °FPassing clouds.3 mph83%29.89 "HgN/A
4:00 AM77 °FPassing clouds.6 mph83%29.86 "HgN/A
3:00 AM77 °FPassing clouds.5 mph89%29.86 "HgN/A
2:00 AM79 °FPassing clouds.6 mph84%29.86 "HgN/A
Weather by CustomWeather, © 2016

See weather overviewHow to use our weather pages